TimeEDT,TemperatureF,Dew PointF,Humidity,Sea Level PressureIn,VisibilityMPH,Wind Direction,Wind SpeedMPH,Gust SpeedMPH,PrecipitationIn,Events,Conditions,WindDirDegrees,DateUTC
12:53 AM,57.0,42.1,57,30.10,10.0,ESE,5.8,-,N/A,,Mostly Cloudy,110,2013-05-19 04:53:00
1:53 AM,57.0,43.0,59,30.10,10.0,Calm,Calm,-,N/A,,Clear,0,2013-05-19 05:53:00
2:53 AM,54.0,45.0,72,30.09,10.0,NE,3.5,-,N/A,,Clear,50,2013-05-19 06:53:00
3:53 AM,54.0,45.0,72,30.09,10.0,Calm,Calm,-,N/A,,Clear,0,2013-05-19 07:53:00
4:53 AM,53.1,46.0,77,30.09,10.0,ESE,3.5,-,N/A,,Clear,110,2013-05-19 08:53:00
5:53 AM,55.4,48.2,77,30.09,10.0,SE,3.5,-,N/A,,Clear,130,2013-05-19 09:53:00
6:53 AM,55.0,48.9,80,30.11,10.0,Calm,Calm,-,N/A,,Clear,0,2013-05-19 10:53:00
6:58 AM,55.4,50.0,82,30.11,10.0,Calm,Calm,-,N/A,,Mostly Cloudy,0,2013-05-19 10:58:00
7:53 AM,60.8,53.6,77,30.11,10.0,South,4.6,-,N/A,,Mostly Cloudy,190,2013-05-19 11:53:00
8:53 AM,63.0,55.0,75,30.12,10.0,South,9.2,-,N/A,,Mostly Cloudy,180,2013-05-19 12:53:00
9:53 AM,66.9,55.9,68,30.11,10.0,South,8.1,-,N/A,,Mostly Cloudy,180,2013-05-19 13:53:00
10:53 AM,70.0,55.9,61,30.09,10.0,SSW,6.9,-,0.00,,Scattered Clouds,200,2013-05-19 14:53:00
11:53 AM,72.0,55.9,57,30.08,10.0,SSE,5.8,-,N/A,,Scattered Clouds,150,2013-05-19 15:53:00
12:53 PM,73.9,57.0,55,30.06,10.0,Variable,6.9,-,N/A,,Scattered Clouds,0,2013-05-19 16:53:00
1:53 PM,75.9,57.0,52,30.03,10.0,Variable,3.5,-,N/A,,Scattered Clouds,0,2013-05-19 17:53:00
2:53 PM,78.8,57.2,47,30.01,10.0,Calm,Calm,-,N/A,,Scattered Clouds,0,2013-05-19 18:53:00
3:53 PM,78.8,57.2,47,30.00,10.0,Calm,Calm,-,N/A,,Scattered Clouds,0,2013-05-19 19:53:00
4:53 PM,77.0,57.9,52,29.99,10.0,NNE,11.5,-,N/A,,Scattered Clouds,30,2013-05-19 20:53:00
5:53 PM,78.1,59.0,52,29.98,10.0,East,4.6,-,N/A,,Scattered Clouds,90,2013-05-19 21:53:00
6:53 PM,77.0,59.0,54,29.96,10.0,East,4.6,-,N/A,,Mostly Cloudy,90,2013-05-19 22:53:00
7:53 PM,75.0,60.1,60,29.96,10.0,ENE,4.6,-,N/A,,Mostly Cloudy,70,2013-05-19 23:53:00
8:53 PM,71.1,59.0,66,29.96,10.0,East,5.8,-,N/A,,Mostly Cloudy,100,2013-05-20 00:53:00
9:53 PM,70.0,60.1,71,29.97,10.0,SSE,5.8,-,N/A,,Mostly Cloudy,160,2013-05-20 01:53:00
10:53 PM,69.1,59.0,70,29.99,10.0,South,8.1,-,N/A,,Mostly Cloudy,180,2013-05-20 02:53:00
11:53 PM,68.0,57.9,70,29.99,10.0,South,8.1,-,N/A,,Clear,190,2013-05-20 03:53:00